Broken Bow, NE

6:55 AM CST on February 27, 2017 (GMT -0600)
Broken Bow Municipal

Weather History for KBBW - April, 2013

Change the Weather History Date:

Friday, April 5, 2013

  Actual Average Record
Temperature  
Mean Temperature 55 °F 44 °F  
Max Temperature 76 °F 58 °F 84 °F (1954)
Min Temperature 33 °F 31 °F 11 °F (2000)
Degree Days  
Heating Degree Days 10 21  
Month to date heating degree days 108 107  
Cooling Degree Days 0 0  
Month to date cooling degree days 0 0  
Year to date cooling degree days 0 0  
Growing Degree Days 5 (Base 50)    
Moisture  
Dew Point 30 °F    
Average Humidity 45    
Maximum Humidity 70    
Minimum Humidity 19    
Precipitation  
Precipitation 0.00 in 0.06 in 0.64 in (1958)
Sea Level Pressure  
Sea Level Pressure 29.84 in    
Wind  
Wind Speed 16 mph (SSE)    
Max Wind Speed 31 mph    
Max Gust Speed 43 mph    
Visibility 10 miles    
Events      
T = Trace of Precipitation, MM = Missing Value Source: NWS Daily Summary

Daily Weather History Graph

Daily Weather History Graph

Search for Another Location

Airport or City:

Trip Planner

Search our weather history database for the weather conditions in past years. The results will help you decide how hot, cold, wet, or windy it might be!

Date:

Astronomy

Apr. 05, 2013 Rise Set
Actual Time 7:14 AM CDT 8:08 PM CDT
Civil Twilight 6:46 AM CDT 8:36 PM CDT
Nautical Twilight 6:13 AM CDT 9:10 PM CDT
Astronomical Twilight 5:38 AM CDT 9:45 PM CDT
Moon 4:26 AM CDT (4/5) 3:31 PM CDT (4/5)
Length of Visible Light 13h 50m
Length of Day
12h 53m
Waning Crescent, 23% of the Moon is Illuminated
Apr 5
Waning Crescent
Apr 10
New
Apr 18
First Quarter
Apr 25
Full
May 2
Last Quarter

Hourly Weather History & Observations

Time (CDT) Temp. Windchill Dew Point Humidity Pressure Visibility Wind Dir Wind Speed Gust Speed Precip Events Conditions
12:53 AM 39.0 °F 34.8 °F 21.0 °F 49% 30.09 in 10.0 mi SSE 5.8 mph - N/A   Clear
1:53 AM 37.9 °F 33.5 °F 21.0 °F 51% 30.07 in 10.0 mi SE 5.8 mph - N/A   Clear
2:53 AM 35.1 °F 31.0 °F 21.9 °F 59% 30.08 in 10.0 mi SE 4.6 mph - N/A   Clear
3:53 AM 35.1 °F 32.2 °F 21.9 °F 59% 30.06 in 10.0 mi East 3.5 mph - N/A   Clear
4:53 AM 35.1 °F 29.3 °F 23.0 °F 61% 30.06 in 10.0 mi SE 6.9 mph - N/A   Clear
5:53 AM 36.0 °F 27.1 °F 25.0 °F 64% 30.03 in 10.0 mi SE 13.8 mph 21.9 mph N/A   Clear
6:53 AM 35.1 °F 26.9 °F 26.1 °F 70% 30.02 in 10.0 mi SE 11.5 mph 21.9 mph N/A   Clear
7:53 AM 37.0 °F 28.9 °F 28.0 °F 70% 30.02 in 10.0 mi SE 12.7 mph - N/A   Clear
8:53 AM 39.9 °F 31.4 °F 30.0 °F 68% 30.00 in 10.0 mi SE 16.1 mph 23.0 mph N/A   Clear
9:53 AM 50.0 °F - 34.0 °F 54% 29.96 in 10.0 mi SSE 17.3 mph - N/A   Clear
10:53 AM 57.9 °F - 33.1 °F 39% 29.91 in 10.0 mi South 20.7 mph - N/A   Clear
11:53 AM 64.0 °F - 30.0 °F 28% 29.87 in 10.0 mi South 21.9 mph 34.5 mph N/A   Clear
12:53 PM 64.9 °F - 30.0 °F 27% 29.84 in 10.0 mi South 21.9 mph 36.8 mph N/A   Clear
1:53 PM 69.1 °F - 30.9 °F 24% 29.77 in 10.0 mi South 26.5 mph 35.7 mph N/A   Clear
2:53 PM 70.0 °F - 30.0 °F 23% 29.74 in 10.0 mi South 28.8 mph 36.8 mph N/A   Clear
3:53 PM 71.1 °F - 30.9 °F 23% 29.70 in 10.0 mi South 20.7 mph 29.9 mph N/A   Clear
4:53 PM 75.0 °F - 30.9 °F 20% 29.65 in 10.0 mi South 17.3 mph 33.4 mph N/A   Clear
5:53 PM 75.0 °F - 30.0 °F 19% 29.61 in 10.0 mi South 21.9 mph 38.0 mph N/A   Partly Cloudy
6:53 PM 71.1 °F - 33.1 °F 25% 29.62 in 10.0 mi South 26.5 mph 38.0 mph N/A   Clear
7:53 PM 66.9 °F - 35.1 °F 31% 29.61 in 10.0 mi SSE 12.7 mph 20.7 mph N/A   Clear
8:53 PM 64.0 °F - 36.0 °F 35% 29.62 in 10.0 mi South 10.4 mph - N/A   Partly Cloudy
9:53 PM 61.0 °F - 37.9 °F 42% 29.60 in 10.0 mi South 17.3 mph 23.0 mph N/A   Clear
10:53 PM 60.1 °F - 37.9 °F 44% 29.60 in 10.0 mi South 16.1 mph - N/A   Clear
11:53 PM 57.0 °F - 39.0 °F 51% 29.58 in 10.0 mi South 9.2 mph - N/A   Mostly Cloudy